Time,TemperatureF,DewpointF,PressureIn,WindDirection,WindDirectionDegrees,WindSpeedMPH,WindSpeedGustMPH,Humidity,HourlyPrecipIn,Conditions,Clouds,dailyrainin,SoftwareType,DateUTC
2013-07-10 00:22:00,81.0,78.0,-100.00,SW,230,0.0,0.0,90,-99.99,,,-99.99,,2013-07-10 05:22:00,
2013-07-10 00:53:00,82.0,77.0,-100.00,South,190,0.0,0.0,86,-99.99,,,-99.99,,2013-07-10 05:53:00,
2013-07-10 01:11:00,82.0,77.0,-100.00,South,190,0.0,0.0,86,-99.99,,,-99.99,,2013-07-10 06:11:00,
2013-07-10 01:22:00,82.0,77.0,-100.00,South,190,0.0,0.0,86,-99.99,,,-99.99,,2013-07-10 06:22:00,
2013-07-10 01:42:00,81.0,77.0,-100.00,SW,225,0.0,0.0,87,-99.99,,,-99.99,,2013-07-10 06:42:00,
2013-07-10 01:52:00,81.0,77.0,-100.00,SW,225,0.0,0.0,87,-99.99,,,-99.99,,2013-07-10 06:52:00,
2013-07-10 02:11:00,81.0,76.0,-100.00,SW,230,0.0,0.0,86,-99.99,,,-99.99,,2013-07-10 07:11:00,
2013-07-10 02:22:00,81.0,76.0,-100.00,SW,230,0.0,0.0,86,-99.99,,,-99.99,,2013-07-10 07:22:00,
2013-07-10 02:43:00,81.0,77.0,-100.00,WSW,240,0.0,0.0,86,-99.99,,,-99.99,,2013-07-10 07:43:00,
2013-07-10 02:53:00,81.0,77.0,-100.00,WSW,240,0.0,0.0,86,-99.99,,,-99.99,,2013-07-10 07:53:00,
2013-07-10 03:11:00,81.0,77.0,-100.00,SW,215,0.0,0.0,88,-99.99,,,-99.99,,2013-07-10 08:11:00,
2013-07-10 03:23:00,81.0,77.0,-100.00,SW,215,0.0,0.0,88,-99.99,,,-99.99,,2013-07-10 08:23:00,
2013-07-10 03:53:00,80.0,77.0,-100.00,WSW,245,0.0,0.0,91,-99.99,,,-99.99,,2013-07-10 08:53:00,
2013-07-10 04:02:00,79.0,77.0,-100.00,ESE,115,0.0,0.0,92,-99.99,,,-99.99,,2013-07-10 09:02:00,
2013-07-10 04:22:00,79.0,77.0,-100.00,ESE,110,0.0,0.0,94,-99.99,,,-99.99,,2013-07-10 09:22:00,
2013-07-10 04:53:00,78.0,77.0,-100.00,South,180,0.0,0.0,99,-99.99,,,-99.99,,2013-07-10 09:53:00,
2013-07-10 05:23:00,78.0,78.0,-100.00,South,180,0.0,0.0,98,-99.99,,,-99.99,,2013-07-10 10:23:00,
2013-07-10 05:50:00,-999.0,-99.9,-100.00,North,0,0.0,0.0,-999,-99.99,,,-99.99,,2013-07-10 10:50:00,
2013-07-10 06:00:00,-999.0,-99.9,-100.00,North,0,0.0,0.0,-999,-99.99,,,-99.99,,2013-07-10 11:00:00,
2013-07-10 06:23:00,77.0,76.0,-100.00,West,260,0.0,0.0,99,-99.99,,,-99.99,,2013-07-10 11:23:00,
2013-07-10 06:33:00,76.0,76.0,-100.00,South,190,0.0,0.0,99,-99.99,,,-99.99,,2013-07-10 11:33:00,
2013-07-10 06:43:00,76.0,76.0,-100.00,NW,320,0.0,0.0,99,-99.99,,,-99.99,,2013-07-10 11:43:00,
2013-07-10 06:52:00,76.0,76.0,-100.00,NW,320,0.0,0.0,99,-99.99,,,-99.99,,2013-07-10 11:52:00,
2013-07-10 07:22:00,77.0,76.0,-100.00,West,275,0.0,0.0,99,-99.99,,,-99.99,,2013-07-10 12:22:00,
2013-07-10 07:53:00,78.0,78.0,-100.00,West,270,0.0,0.0,99,-99.99,,,-99.99,,2013-07-10 12:53:00,
2013-07-10 08:22:00,80.0,79.0,-100.00,NNE,15,0.0,0.0,98,-99.99,,,-99.99,,2013-07-10 13:22:00,
2013-07-10 08:52:00,81.0,75.0,-100.00,NNE,20,0.0,0.0,83,-99.99,,,-99.99,,2013-07-10 13:52:00,
2013-07-10 09:22:00,80.0,73.0,-100.00,NNE,20,0.0,0.0,80,-99.99,,,-99.99,,2013-07-10 14:22:00,
2013-07-10 09:43:00,80.0,72.0,-100.00,NNE,25,0.0,0.0,78,-99.99,,,-99.99,,2013-07-10 14:43:00,
2013-07-10 09:53:00,80.0,72.0,-100.00,NNE,25,0.0,0.0,78,-99.99,,,-99.99,,2013-07-10 14:53:00,
2013-07-10 10:01:00,81.0,73.0,-100.00,North,0,0.0,0.0,77,-99.99,,,-99.99,,2013-07-10 15:01:00,
2013-07-10 10:11:00,82.0,73.0,-100.00,North,0,0.0,0.0,73,-99.99,,,-99.99,,2013-07-10 15:11:00,
2013-07-10 10:22:00,82.0,73.0,-100.00,North,0,0.0,0.0,73,-99.99,,,-99.99,,2013-07-10 15:22:00,
2013-07-10 10:52:00,86.0,68.0,-100.00,North,10,0.0,0.0,56,-99.99,,,-99.99,,2013-07-10 15:52:00,
2013-07-10 11:11:00,86.0,68.0,-100.00,NNE,25,0.0,0.0,55,-99.99,,,-99.99,,2013-07-10 16:11:00,
2013-07-10 11:22:00,86.0,68.0,-100.00,NNE,25,0.0,0.0,55,-99.99,,,-99.99,,2013-07-10 16:22:00,
2013-07-10 11:44:00,88.0,69.0,-100.00,North,0,0.0,0.0,53,-99.99,,,-99.99,,2013-07-10 16:44:00,
2013-07-10 11:53:00,88.0,69.0,-100.00,North,0,0.0,0.0,53,-99.99,,,-99.99,,2013-07-10 16:53:00,
2013-07-10 12:11:00,89.0,67.0,-100.00,North,10,0.0,0.0,49,-99.99,,,-99.99,,2013-07-10 17:11:00,
2013-07-10 12:23:00,89.0,67.0,-100.00,North,10,0.0,0.0,49,-99.99,,,-99.99,,2013-07-10 17:23:00,
2013-07-10 12:43:00,90.0,68.0,-100.00,North,0,0.0,0.0,49,-99.99,,,-99.99,,2013-07-10 17:43:00,
2013-07-10 12:53:00,90.0,68.0,-100.00,North,0,0.0,0.0,49,-99.99,,,-99.99,,2013-07-10 17:53:00,
2013-07-10 13:22:00,90.0,67.0,-100.00,North,0,0.0,0.0,48,-99.99,,,-99.99,,2013-07-10 18:22:00,
2013-07-10 13:44:00,90.0,66.0,-100.00,North,0,0.0,0.0,46,-99.99,,,-99.99,,2013-07-10 18:44:00,
2013-07-10 13:53:00,90.0,66.0,-100.00,North,0,0.0,0.0,46,-99.99,,,-99.99,,2013-07-10 18:53:00,
2013-07-10 14:22:00,90.0,67.0,-100.00,North,0,0.0,0.0,47,-99.99,,,-99.99,,2013-07-10 19:22:00,
2013-07-10 14:32:00,89.0,68.0,-100.00,NNW,330,0.0,0.0,49,-99.99,,,-99.99,,2013-07-10 19:32:00,
2013-07-10 14:42:00,91.0,68.0,-100.00,NNW,335,0.0,0.0,47,-99.99,,,-99.99,,2013-07-10 19:42:00,
2013-07-10 14:53:00,91.0,68.0,-100.00,NNW,335,0.0,0.0,47,-99.99,,,-99.99,,2013-07-10 19:53:00,
2013-07-10 15:22:00,90.0,69.0,-100.00,North,0,0.0,0.0,49,-99.99,,,-99.99,,2013-07-10 20:22:00,
2013-07-10 15:32:00,90.0,68.0,-100.00,NW,315,0.0,0.0,49,-99.99,,,-99.99,,2013-07-10 20:32:00,
2013-07-10 15:43:00,89.0,67.0,-100.00,NNW,340,0.0,0.0,48,-99.99,,,-99.99,,2013-07-10 20:43:00,
2013-07-10 15:52:00,89.0,67.0,-100.00,NNW,340,0.0,0.0,48,-99.99,,,-99.99,,2013-07-10 20:52:00,
2013-07-10 16:01:00,90.0,70.0,-100.00,NNW,335,0.0,0.0,51,-99.99,,,-99.99,,2013-07-10 21:01:00,
2013-07-10 16:11:00,90.0,68.0,-100.00,North,355,0.0,0.0,50,-99.99,,,-99.99,,2013-07-10 21:11:00,
2013-07-10 16:22:00,90.0,68.0,-100.00,North,355,0.0,0.0,50,-99.99,,,-99.99,,2013-07-10 21:22:00,
2013-07-10 16:52:00,88.0,67.0,-100.00,NW,315,0.0,0.0,50,-99.99,,,-99.99,,2013-07-10 21:52:00,
2013-07-10 17:11:00,86.0,68.0,-100.00,North,355,0.0,0.0,55,-99.99,,,-99.99,,2013-07-10 22:11:00,
2013-07-10 17:21:00,86.0,68.0,-100.00,North,355,0.0,0.0,55,-99.99,,,-99.99,,2013-07-10 22:21:00,
2013-07-10 17:53:00,84.0,65.0,-100.00,North,0,0.0,0.0,53,-99.99,,,-99.99,,2013-07-10 22:53:00,
2013-07-10 18:22:00,83.0,64.0,-100.00,NNW,345,0.0,0.0,53,-99.99,,,-99.99,,2013-07-10 23:22:00,
2013-07-10 18:52:00,82.0,65.0,-100.00,North,0,0.0,0.0,57,-99.99,,,-99.99,,2013-07-10 23:52:00,
2013-07-10 19:01:00,82.0,65.0,-100.00,North,0,0.0,0.0,57,-99.99,,,-99.99,,2013-07-11 00:01:00,
2013-07-10 19:22:00,81.0,64.0,-100.00,North,0,0.0,0.0,57,-99.99,,,-99.99,,2013-07-11 00:22:00,
2013-07-10 19:42:00,80.0,64.0,-100.00,North,0,0.0,0.0,59,-99.99,,,-99.99,,2013-07-11 00:42:00,
2013-07-10 19:52:00,80.0,64.0,-100.00,North,0,0.0,0.0,59,-99.99,,,-99.99,,2013-07-11 00:52:00,
2013-07-10 20:22:00,78.0,64.0,-100.00,North,0,0.0,0.0,62,-99.99,,,-99.99,,2013-07-11 01:22:00,
2013-07-10 20:52:00,75.0,64.0,-100.00,North,0,0.0,0.0,68,-99.99,,,-99.99,,2013-07-11 01:52:00,
2013-07-10 21:22:00,74.0,65.0,-100.00,North,5,0.0,0.0,75,-99.99,,,-99.99,,2013-07-11 02:22:00,
2013-07-10 21:53:00,72.0,66.0,-100.00,North,5,0.0,0.0,81,-99.99,,,-99.99,,2013-07-11 02:53:00,
2013-07-10 22:22:00,71.0,66.0,-100.00,North,0,0.0,0.0,86,-99.99,,,-99.99,,2013-07-11 03:22:00,
2013-07-10 22:53:00,69.0,66.0,-100.00,North,350,0.0,0.0,90,-99.99,,,-99.99,,2013-07-11 03:53:00,
2013-07-10 23:22:00,67.0,66.0,-100.00,North,0,0.0,0.0,96,-99.99,,,-99.99,,2013-07-11 04:22:00,
2013-07-10 23:42:00,66.0,66.0,-100.00,North,10,0.0,0.0,99,-99.99,,,-99.99,,2013-07-11 04:42:00,
2013-07-10 23:53:00,66.0,66.0,-100.00,North,10,0.0,0.0,99,-99.99,,,-99.99,,2013-07-11 04:53:00,